Time,TemperatureF,DewpointF,PressureIn,WindDirection,WindDirectionDegrees,WindSpeedMPH,WindSpeedGustMPH,Humidity,HourlyPrecipIn,Conditions,Clouds,dailyrainin,SoftwareType,DateUTC
2013-03-19 00:03:00,30.0,28.0,30.00,East,88,5.0,13.0,92,0.00,,,0.01,,2013-03-19 04:03:00,
2013-03-19 00:13:00,30.0,28.0,30.00,East,88,5.0,13.0,92,0.00,,,0.01,,2013-03-19 04:13:00,
2013-03-19 00:23:00,30.0,28.0,30.00,East,88,5.0,13.0,92,0.00,,,0.01,,2013-03-19 04:23:00,
2013-03-19 00:33:00,31.0,29.0,30.00,East,94,8.0,14.0,92,0.00,,,0.00,,2013-03-19 04:33:00,
2013-03-19 00:43:00,31.0,29.0,30.00,East,94,8.0,14.0,92,0.00,,,0.00,,2013-03-19 04:43:00,
2013-03-19 00:52:00,31.0,29.0,30.00,East,94,8.0,14.0,92,0.00,,,0.00,,2013-03-19 04:52:00,
2013-03-19 01:02:00,31.0,29.0,29.97,East,84,6.0,17.0,91,0.00,,,0.00,,2013-03-19 05:02:00,
2013-03-19 01:12:00,31.0,29.0,29.97,East,84,6.0,17.0,91,0.00,,,0.00,,2013-03-19 05:12:00,
2013-03-19 01:22:00,31.0,29.0,29.96,East,89,4.0,15.0,91,0.00,,,0.00,,2013-03-19 05:22:00,
2013-03-19 01:32:00,31.0,29.0,29.94,East,87,8.0,13.0,91,0.00,,,0.00,,2013-03-19 05:32:00,
2013-03-19 01:43:00,31.0,29.0,29.94,East,87,8.0,13.0,91,0.00,,,0.00,,2013-03-19 05:43:00,
2013-03-19 01:52:00,31.0,29.0,29.94,East,87,8.0,13.0,91,0.00,,,0.00,,2013-03-19 05:52:00,
2013-03-19 02:02:00,32.0,30.0,29.89,East,91,7.0,16.0,91,0.00,,,0.00,,2013-03-19 06:02:00,
2013-03-19 02:12:00,32.0,30.0,29.89,East,91,7.0,16.0,91,0.00,,,0.00,,2013-03-19 06:12:00,
2013-03-19 02:22:00,32.0,30.0,29.89,ENE,78,8.0,22.0,91,0.00,,,0.00,,2013-03-19 06:22:00,
2013-03-19 02:32:00,32.0,30.0,29.89,East,83,4.0,14.0,91,0.00,,,0.00,,2013-03-19 06:32:00,
2013-03-19 02:42:00,32.0,30.0,29.89,East,83,4.0,14.0,91,0.00,,,0.00,,2013-03-19 06:42:00,
2013-03-19 02:52:00,32.0,30.0,29.89,East,82,5.0,12.0,92,0.00,,,0.00,,2013-03-19 06:52:00,
2013-03-19 03:02:00,32.0,30.0,29.89,ESE,108,4.0,13.0,92,0.00,,,0.00,,2013-03-19 07:02:00,
2013-03-19 03:12:00,32.0,30.0,29.89,ESE,108,4.0,13.0,92,0.00,,,0.00,,2013-03-19 07:12:00,
2013-03-19 03:22:00,32.0,30.0,29.89,ESE,108,4.0,13.0,92,0.00,,,0.00,,2013-03-19 07:22:00,
2013-03-19 03:32:00,32.0,30.0,29.87,East,82,6.0,16.0,92,0.01,,,0.01,,2013-03-19 07:32:00,
2013-03-19 03:42:00,32.0,30.0,29.87,East,82,6.0,16.0,92,0.01,,,0.01,,2013-03-19 07:42:00,
2013-03-19 03:53:00,32.0,30.0,29.85,ENE,76,8.0,17.0,92,0.01,,,0.01,,2013-03-19 07:53:00,
2013-03-19 04:03:00,32.0,30.0,29.84,ENE,67,0.0,13.0,92,0.03,,,0.03,,2013-03-19 08:03:00,
2013-03-19 04:12:00,32.0,30.0,29.84,ENE,67,0.0,13.0,92,0.03,,,0.03,,2013-03-19 08:12:00,
2013-03-19 04:22:00,32.0,30.0,29.83,ENE,71,0.0,0.0,92,0.03,,,0.03,,2013-03-19 08:22:00,
2013-03-19 04:32:00,32.0,30.0,29.82,ENE,70,0.0,0.0,92,0.00,,,0.03,,2013-03-19 08:32:00,
2013-03-19 04:42:00,32.0,30.0,29.82,ENE,70,0.0,0.0,92,0.00,,,0.03,,2013-03-19 08:42:00,
2013-03-19 04:52:00,32.0,30.0,29.82,ENE,70,0.0,0.0,92,0.00,,,0.03,,2013-03-19 08:52:00,
2013-03-19 05:02:00,33.0,31.0,29.81,ENE,70,0.0,0.0,92,0.00,,,0.03,,2013-03-19 09:02:00,
2013-03-19 05:12:00,33.0,31.0,29.81,ENE,70,0.0,0.0,92,0.00,,,0.03,,2013-03-19 09:12:00,
2013-03-19 05:22:00,33.0,31.0,29.80,ENE,69,0.0,0.0,92,0.00,,,0.03,,2013-03-19 09:22:00,
2013-03-19 05:33:00,33.0,31.0,29.80,ENE,69,0.0,0.0,92,0.00,,,0.03,,2013-03-19 09:33:00,
2013-03-19 05:43:00,33.0,31.0,29.80,ENE,69,0.0,0.0,92,0.00,,,0.03,,2013-03-19 09:43:00,
2013-03-19 05:52:00,33.0,31.0,29.80,ENE,69,0.0,0.0,92,0.00,,,0.03,,2013-03-19 09:52:00,
2013-03-19 06:03:00,33.0,31.0,29.77,ENE,66,0.0,0.0,92,0.00,,,0.03,,2013-03-19 10:03:00,
2013-03-19 06:13:00,33.0,31.0,29.77,ENE,66,0.0,0.0,92,0.00,,,0.03,,2013-03-19 10:13:00,
2013-03-19 06:23:00,33.0,31.0,29.78,ENE,70,0.0,0.0,92,0.01,,,0.04,,2013-03-19 10:23:00,
2013-03-19 06:33:00,33.0,31.0,29.78,ENE,70,0.0,0.0,92,0.01,,,0.04,,2013-03-19 10:33:00,
2013-03-19 06:42:00,33.0,31.0,29.78,ENE,70,0.0,0.0,92,0.01,,,0.04,,2013-03-19 10:42:00,
2013-03-19 06:52:00,33.0,31.0,29.76,SE,126,0.0,0.0,92,0.01,,,0.05,,2013-03-19 10:52:00,
2013-03-19 07:03:00,33.0,31.0,29.74,East,96,0.0,0.0,92,0.01,,,0.05,,2013-03-19 11:03:00,
2013-03-19 07:12:00,33.0,31.0,29.74,East,96,0.0,0.0,92,0.01,,,0.05,,2013-03-19 11:12:00,
2013-03-19 07:22:00,33.0,31.0,29.74,East,96,0.0,0.0,92,0.01,,,0.05,,2013-03-19 11:22:00,
2013-03-19 07:33:00,33.0,31.0,29.76,ENE,76,0.0,0.0,92,0.00,,,0.05,,2013-03-19 11:33:00,
2013-03-19 07:43:00,33.0,31.0,29.76,ENE,76,0.0,0.0,92,0.00,,,0.05,,2013-03-19 11:43:00,
2013-03-19 07:52:00,33.0,31.0,29.76,ENE,76,0.0,0.0,92,0.00,,,0.05,,2013-03-19 11:52:00,
2013-03-19 08:02:00,33.0,31.0,29.76,ENE,76,0.0,0.0,92,0.00,,,0.05,,2013-03-19 12:02:00,
2013-03-19 08:12:00,33.0,31.0,29.76,ENE,67,0.0,0.0,92,0.00,,,0.05,,2013-03-19 12:12:00,
2013-03-19 08:22:00,33.0,31.0,29.76,ENE,67,0.0,0.0,92,0.00,,,0.05,,2013-03-19 12:22:00,
2013-03-19 08:33:00,33.0,31.0,29.74,NE,47,0.0,0.0,92,0.01,,,0.06,,2013-03-19 12:33:00,
2013-03-19 08:43:00,33.0,31.0,29.74,NE,47,0.0,0.0,92,0.01,,,0.06,,2013-03-19 12:43:00,
2013-03-19 08:52:00,33.0,31.0,29.74,NE,47,0.0,0.0,92,0.01,,,0.06,,2013-03-19 12:52:00,
2013-03-19 09:02:00,33.0,31.0,29.72,NE,55,3.0,8.0,92,0.02,,,0.00,,2013-03-19 13:02:00,
2013-03-19 09:12:00,33.0,31.0,29.72,NE,55,3.0,8.0,92,0.02,,,0.00,,2013-03-19 13:12:00,
2013-03-19 09:22:00,33.0,31.0,29.73,ENE,64,1.0,9.0,92,0.02,,,0.00,,2013-03-19 13:22:00,
2013-03-19 09:33:00,33.0,31.0,29.73,ENE,61,2.0,6.0,92,0.00,,,0.00,,2013-03-19 13:33:00,
2013-03-19 09:42:00,33.0,31.0,29.73,ENE,61,2.0,6.0,92,0.00,,,0.00,,2013-03-19 13:42:00,
2013-03-19 09:52:00,33.0,31.0,29.72,ENE,71,4.0,11.0,92,0.00,,,0.00,,2013-03-19 13:52:00,
2013-03-19 10:02:00,33.0,31.0,29.72,ENE,71,4.0,11.0,92,0.00,,,0.00,,2013-03-19 14:02:00,
2013-03-19 10:12:00,33.0,31.0,29.72,ENE,71,4.0,11.0,92,0.00,,,0.00,,2013-03-19 14:12:00,
2013-03-19 10:22:00,33.0,31.0,29.72,ENE,71,4.0,11.0,92,0.00,,,0.00,,2013-03-19 14:22:00,
2013-03-19 10:32:00,33.0,31.0,29.71,NE,51,5.0,9.0,92,0.00,,,0.00,,2013-03-19 14:32:00,
2013-03-19 10:42:00,33.0,31.0,29.71,NE,51,5.0,9.0,92,0.00,,,0.00,,2013-03-19 14:42:00,
2013-03-19 10:53:00,33.0,31.0,29.71,NE,51,5.0,9.0,92,0.00,,,0.00,,2013-03-19 14:53:00,
2013-03-19 11:02:00,33.0,31.0,29.71,NNE,13,1.0,4.0,93,0.00,,,0.00,,2013-03-19 15:02:00,
2013-03-19 11:12:00,33.0,31.0,29.71,NNE,13,1.0,4.0,93,0.00,,,0.00,,2013-03-19 15:12:00,
2013-03-19 11:23:00,33.0,31.0,29.71,NNE,13,1.0,4.0,93,0.00,,,0.00,,2013-03-19 15:23:00,
2013-03-19 11:34:00,33.0,31.0,29.71,NNE,13,1.0,4.0,93,0.00,,,0.00,,2013-03-19 15:34:00,
2013-03-19 11:44:00,33.0,31.0,29.71,NNE,13,1.0,4.0,93,0.00,,,0.00,,2013-03-19 15:44:00,
2013-03-19 11:53:00,33.0,31.0,29.74,NW,313,0.0,2.0,93,0.00,,,0.00,,2013-03-19 15:53:00,
2013-03-19 12:04:00,33.0,31.0,29.74,NE,37,0.0,3.0,93,0.00,,,0.00,,2013-03-19 16:04:00,
2013-03-19 12:13:00,33.0,31.0,29.74,NE,37,0.0,3.0,93,0.00,,,0.00,,2013-03-19 16:13:00,
2013-03-19 12:24:00,33.0,31.0,29.74,NE,37,0.0,3.0,93,0.00,,,0.00,,2013-03-19 16:24:00,
2013-03-19 12:34:00,34.0,32.0,29.71,ENE,72,4.0,10.0,93,0.03,,,0.06,,2013-03-19 16:34:00,
2013-03-19 12:44:00,34.0,32.0,29.71,ENE,72,4.0,10.0,93,0.03,,,0.06,,2013-03-19 16:44:00,
2013-03-19 12:55:00,34.0,32.0,29.70,North,356,2.0,8.0,93,0.04,,,0.07,,2013-03-19 16:55:00,
2013-03-19 13:03:00,34.0,32.0,29.69,West,271,2.0,7.0,93,0.06,,,0.09,,2013-03-19 17:03:00,
2013-03-19 13:13:00,34.0,32.0,29.69,West,271,2.0,7.0,93,0.06,,,0.09,,2013-03-19 17:13:00,
2013-03-19 13:23:00,34.0,32.0,29.69,West,271,2.0,7.0,93,0.06,,,0.09,,2013-03-19 17:23:00,
2013-03-19 13:34:00,35.0,33.0,29.69,NNE,20,3.0,7.0,93,0.02,,,0.11,,2013-03-19 17:34:00,
2013-03-19 13:44:00,35.0,33.0,29.69,NNE,20,3.0,7.0,93,0.02,,,0.11,,2013-03-19 17:44:00,
2013-03-19 13:52:00,35.0,33.0,29.69,NNE,20,3.0,7.0,93,0.02,,,0.11,,2013-03-19 17:52:00,
2013-03-19 14:03:00,36.0,34.0,29.68,NNE,17,1.0,4.0,92,0.07,,,0.16,,2013-03-19 18:03:00,
2013-03-19 14:13:00,36.0,34.0,29.68,NNE,17,1.0,4.0,92,0.07,,,0.16,,2013-03-19 18:13:00,
2013-03-19 14:23:00,36.0,34.0,29.68,NNE,17,1.0,4.0,92,0.07,,,0.16,,2013-03-19 18:23:00,
2013-03-19 14:34:00,37.0,34.0,29.66,NNW,339,1.0,6.0,89,0.03,,,0.20,,2013-03-19 18:34:00,
2013-03-19 14:43:00,37.0,34.0,29.66,NNW,339,1.0,6.0,89,0.03,,,0.20,,2013-03-19 18:43:00,
2013-03-19 14:53:00,37.0,34.0,29.65,NE,42,3.0,8.0,89,0.04,,,0.21,,2013-03-19 18:53:00,
2013-03-19 15:03:00,37.0,33.0,29.66,SSW,209,0.0,6.0,86,0.08,,,0.25,,2013-03-19 19:03:00,
2013-03-19 15:12:00,37.0,33.0,29.66,SSW,209,0.0,6.0,86,0.08,,,0.25,,2013-03-19 19:12:00,
2013-03-19 15:22:00,36.0,32.0,29.66,NNE,20,2.0,4.0,86,0.09,,,0.26,,2013-03-19 19:22:00,
2013-03-19 15:33:00,36.0,32.0,29.66,WSW,241,0.0,4.0,86,0.02,,,0.28,,2013-03-19 19:33:00,
2013-03-19 15:42:00,36.0,32.0,29.66,WSW,241,0.0,4.0,86,0.02,,,0.28,,2013-03-19 19:42:00,
2013-03-19 15:52:00,36.0,33.0,29.67,WNW,298,1.0,3.0,87,0.03,,,0.29,,2013-03-19 19:52:00,
2013-03-19 16:03:00,36.0,33.0,29.67,NNE,24,1.0,5.0,87,0.04,,,0.30,,2013-03-19 20:03:00,
2013-03-19 16:12:00,36.0,33.0,29.67,NNW,328,1.0,3.0,87,0.05,,,0.31,,2013-03-19 20:12:00,
2013-03-19 16:22:00,36.0,33.0,29.67,NNW,328,1.0,3.0,87,0.05,,,0.31,,2013-03-19 20:22:00,
2013-03-19 16:33:00,36.0,33.0,29.67,NNE,23,1.0,3.0,87,0.00,,,0.31,,2013-03-19 20:33:00,
2013-03-19 16:43:00,36.0,33.0,29.67,NNE,23,1.0,3.0,87,0.00,,,0.31,,2013-03-19 20:43:00,
2013-03-19 16:52:00,37.0,34.0,29.66,ENE,63,0.0,4.0,88,0.02,,,0.33,,2013-03-19 20:52:00,
2013-03-19 17:02:00,37.0,33.0,29.66,NNE,16,2.0,3.0,86,0.03,,,0.34,,2013-03-19 21:02:00,
2013-03-19 17:12:00,37.0,33.0,29.66,NNE,16,2.0,3.0,86,0.03,,,0.34,,2013-03-19 21:12:00,
2013-03-19 17:23:00,37.0,33.0,29.66,NNE,16,2.0,3.0,86,0.03,,,0.34,,2013-03-19 21:23:00,
2013-03-19 17:34:00,38.0,33.0,29.66,NNE,17,0.0,4.0,83,0.02,,,0.38,,2013-03-19 21:34:00,
2013-03-19 17:43:00,38.0,33.0,29.66,NNE,17,0.0,4.0,83,0.02,,,0.38,,2013-03-19 21:43:00,
2013-03-19 17:53:00,38.0,33.0,29.66,North,350,0.0,3.0,83,0.02,,,0.38,,2013-03-19 21:53:00,
2013-03-19 18:03:00,38.0,33.0,29.66,WNW,290,2.0,4.0,82,0.03,,,0.39,,2013-03-19 22:03:00,
2013-03-19 18:13:00,38.0,33.0,29.66,WNW,290,2.0,4.0,82,0.03,,,0.39,,2013-03-19 22:13:00,
2013-03-19 18:23:00,38.0,33.0,29.66,West,281,0.0,1.0,81,0.04,,,0.40,,2013-03-19 22:23:00,
2013-03-19 18:33:00,38.0,33.0,29.66,West,281,0.0,1.0,81,0.04,,,0.40,,2013-03-19 22:33:00,
2013-03-19 18:43:00,38.0,32.0,29.67,West,281,0.0,0.0,80,0.00,,,0.40,,2013-03-19 22:43:00,
2013-03-19 18:53:00,38.0,32.0,29.67,West,281,0.0,0.0,80,0.00,,,0.40,,2013-03-19 22:53:00,
2013-03-19 19:03:00,37.0,31.0,29.67,West,281,0.0,0.0,80,0.01,,,0.41,,2013-03-19 23:03:00,
2013-03-19 19:12:00,37.0,31.0,29.67,West,281,0.0,0.0,80,0.01,,,0.41,,2013-03-19 23:12:00,
2013-03-19 19:22:00,37.0,31.0,29.67,West,281,0.0,0.0,80,0.01,,,0.41,,2013-03-19 23:22:00,
2013-03-19 19:32:00,36.0,30.0,29.68,West,281,0.0,0.0,80,0.00,,,0.41,,2013-03-19 23:32:00,
2013-03-19 19:42:00,36.0,30.0,29.68,West,281,0.0,0.0,80,0.00,,,0.41,,2013-03-19 23:42:00,
2013-03-19 19:52:00,36.0,30.0,29.68,West,281,0.0,0.0,80,0.00,,,0.41,,2013-03-19 23:52:00,
2013-03-19 20:03:00,36.0,31.0,29.68,West,281,0.0,0.0,81,0.00,,,0.41,,2013-03-20 00:03:00,
2013-03-19 20:13:00,36.0,31.0,29.68,West,281,0.0,0.0,81,0.00,,,0.41,,2013-03-20 00:13:00,
2013-03-19 20:22:00,35.0,30.0,29.70,West,281,0.0,1.0,81,0.00,,,0.41,,2013-03-20 00:22:00,
2013-03-19 20:33:00,35.0,30.0,29.70,West,281,0.0,0.0,82,0.00,,,0.41,,2013-03-20 00:33:00,
2013-03-19 20:42:00,35.0,30.0,29.70,West,281,0.0,0.0,82,0.00,,,0.41,,2013-03-20 00:42:00,
2013-03-19 20:52:00,35.0,30.0,29.70,West,281,0.0,0.0,82,0.00,,,0.41,,2013-03-20 00:52:00,
2013-03-19 21:03:00,35.0,30.0,29.70,West,281,0.0,0.0,82,0.00,,,0.41,,2013-03-20 01:03:00,
2013-03-19 21:12:00,35.0,30.0,29.70,West,281,0.0,0.0,82,0.00,,,0.41,,2013-03-20 01:12:00,
2013-03-19 21:22:00,34.0,30.0,29.72,North,352,0.0,6.0,85,0.00,,,0.41,,2013-03-20 01:22:00,
2013-03-19 21:32:00,34.0,30.0,29.72,NW,308,0.0,2.0,86,0.00,,,0.41,,2013-03-20 01:32:00,
2013-03-19 21:43:00,34.0,30.0,29.72,NW,308,0.0,2.0,86,0.00,,,0.41,,2013-03-20 01:43:00,
2013-03-19 21:53:00,34.0,30.0,29.72,WNW,302,0.0,1.0,86,0.00,,,0.41,,2013-03-20 01:53:00,
2013-03-19 22:02:00,34.0,30.0,29.72,WNW,296,0.0,4.0,86,0.00,,,0.41,,2013-03-20 02:02:00,
2013-03-19 22:12:00,34.0,30.0,29.72,WNW,296,0.0,4.0,86,0.00,,,0.41,,2013-03-20 02:12:00,
2013-03-19 22:22:00,34.0,31.0,29.72,WSW,255,0.0,2.0,87,0.00,,,0.41,,2013-03-20 02:22:00,
2013-03-19 22:32:00,34.0,31.0,29.73,West,269,1.0,5.0,87,0.00,,,0.41,,2013-03-20 02:32:00,
2013-03-19 22:42:00,34.0,31.0,29.73,West,269,1.0,5.0,87,0.00,,,0.41,,2013-03-20 02:42:00,
2013-03-19 22:52:00,34.0,31.0,29.74,NW,310,1.0,4.0,87,0.00,,,0.41,,2013-03-20 02:52:00,
2013-03-19 23:02:00,34.0,31.0,29.74,West,280,2.0,7.0,87,0.00,,,0.41,,2013-03-20 03:02:00,
2013-03-19 23:12:00,33.0,29.0,29.73,WSW,242,1.0,5.0,86,0.00,,,0.41,,2013-03-20 03:12:00,
2013-03-19 23:22:00,33.0,29.0,29.73,WSW,242,1.0,5.0,86,0.00,,,0.41,,2013-03-20 03:22:00,
2013-03-19 23:34:00,33.0,29.0,29.73,NW,320,2.0,5.0,85,0.00,,,0.41,,2013-03-20 03:34:00,
2013-03-19 23:43:00,33.0,29.0,29.73,NW,320,2.0,5.0,85,0.00,,,0.41,,2013-03-20 03:43:00,
2013-03-19 23:53:00,33.0,28.0,29.74,NNE,12,1.0,3.0,83,0.00,,,0.41,,2013-03-20 03:53:00,